Time,TemperatureF,DewpointF,PressureIn,WindDirection,WindDirectionDegrees,WindSpeedMPH,WindSpeedGustMPH,Humidity,HourlyPrecipIn,Conditions,Clouds,dailyrainin,SoftwareType,DateUTC
2013-06-06 00:00:00,64.4,47.4,30.08,NE,47,0.0,0.0,54,0.00,CLR,,0.00,WeatherDisplay:10.37,2013-06-06 05:00:00,
2013-06-06 00:05:00,64.2,47.2,30.09,NE,44,0.0,0.0,54,0.00,CLR,,0.00,WeatherDisplay:10.37,2013-06-06 05:05:00,
2013-06-06 00:10:00,64.0,47.1,30.09,NE,41,0.0,0.0,54,0.00,CLR,,0.00,WeatherDisplay:10.37,2013-06-06 05:10:00,
2013-06-06 00:15:00,63.9,47.4,30.08,NE,43,0.0,0.0,55,0.00,CLR,,0.00,WeatherDisplay:10.37,2013-06-06 05:15:00,
2013-06-06 00:25:00,63.9,46.9,30.08,NE,45,0.0,0.0,54,0.00,CLR,,0.00,WeatherDisplay:10.37,2013-06-06 05:25:00,
2013-06-06 00:30:00,64.0,47.1,30.08,NE,45,0.0,0.0,54,0.00,CLR,,0.00,WeatherDisplay:10.37,2013-06-06 05:30:00,
2013-06-06 00:35:00,64.0,47.1,30.08,NE,45,0.0,0.0,54,0.00,CLR,,0.00,WeatherDisplay:10.37,2013-06-06 05:35:00,
2013-06-06 00:40:00,63.9,46.9,30.08,NE,45,0.0,0.0,54,0.00,CLR,,0.00,WeatherDisplay:10.37,2013-06-06 05:40:00,
2013-06-06 00:45:00,63.7,46.7,30.08,NE,45,0.0,0.0,54,0.00,CLR,,0.00,WeatherDisplay:10.37,2013-06-06 05:45:00,
2013-06-06 00:50:00,63.7,47.2,30.08,NE,45,0.0,0.0,55,0.00,CLR,,0.00,WeatherDisplay:10.37,2013-06-06 05:50:00,
2013-06-06 00:55:00,63.5,47.0,30.07,NE,45,0.0,0.0,55,0.00,CLR,,0.00,WeatherDisplay:10.37,2013-06-06 05:55:00,
2013-06-06 01:00:00,63.3,46.9,30.07,NE,45,0.0,0.0,55,0.00,CLR,,0.00,WeatherDisplay:10.37,2013-06-06 06:00:00,
2013-06-06 01:05:00,63.1,46.7,30.08,NE,43,0.0,0.0,55,0.00,CLR,,0.00,WeatherDisplay:10.37,2013-06-06 06:05:00,
2013-06-06 01:10:00,63.0,46.5,30.07,NE,40,0.0,0.0,55,0.00,CLR,,0.00,WeatherDisplay:10.37,2013-06-06 06:10:00,
2013-06-06 01:20:00,62.9,46.5,30.07,NE,45,0.0,0.0,55,0.00,CLR,,0.00,WeatherDisplay:10.37,2013-06-06 06:20:00,
2013-06-06 01:25:00,62.8,45.9,30.07,NE,48,0.0,0.0,54,0.00,CLR,,0.00,WeatherDisplay:10.37,2013-06-06 06:25:00,
2013-06-06 01:30:00,62.8,45.4,30.07,ENE,60,0.0,0.0,53,0.00,CLR,,0.00,WeatherDisplay:10.37,2013-06-06 06:30:00,
2013-06-06 01:35:00,62.8,45.4,30.07,ENE,68,0.0,0.0,53,0.00,CLR,,0.00,WeatherDisplay:10.37,2013-06-06 06:35:00,
2013-06-06 01:40:00,62.6,45.2,30.07,ENE,63,0.0,0.0,53,0.00,CLR,,0.00,WeatherDisplay:10.37,2013-06-06 06:40:00,
2013-06-06 01:45:00,62.6,45.2,30.07,ENE,58,0.0,0.0,53,0.00,CLR,,0.00,WeatherDisplay:10.37,2013-06-06 06:45:00,
2013-06-06 01:55:00,62.8,43.9,30.07,NE,44,0.0,0.0,50,0.00,CLR,,0.00,WeatherDisplay:10.37,2013-06-06 06:55:00,
2013-06-06 02:00:00,62.8,43.9,30.07,ENE,69,0.0,0.0,50,0.00,CLR,,0.00,WeatherDisplay:10.37,2013-06-06 07:00:00,
2013-06-06 02:05:00,62.5,43.1,30.06,ENE,67,0.0,0.0,49,0.00,CLR,,0.00,WeatherDisplay:10.37,2013-06-06 07:05:00,
2013-06-06 02:10:00,62.4,43.0,30.06,NE,48,0.0,0.0,49,0.00,CLR,,0.00,WeatherDisplay:10.37,2013-06-06 07:10:00,
2013-06-06 02:15:00,62.2,43.4,30.06,NE,38,0.0,0.0,50,0.00,CLR,,0.00,WeatherDisplay:10.37,2013-06-06 07:15:00,
2013-06-06 02:20:00,62.2,42.8,30.06,NE,39,0.0,0.0,49,0.00,CLR,,0.00,WeatherDisplay:10.37,2013-06-06 07:20:00,
2013-06-06 02:30:00,62.1,42.1,30.06,ENE,72,0.0,0.0,48,0.00,CLR,,0.00,WeatherDisplay:10.37,2013-06-06 07:30:00,
2013-06-06 02:35:00,62.1,42.1,30.06,NE,54,0.0,0.0,48,0.00,CLR,,0.00,WeatherDisplay:10.37,2013-06-06 07:35:00,
2013-06-06 02:40:00,62.1,41.6,30.06,ENE,61,0.0,0.0,47,0.00,CLR,,0.00,WeatherDisplay:10.37,2013-06-06 07:40:00,
2013-06-06 02:45:00,61.9,41.4,30.06,ENE,72,0.0,0.0,47,0.00,CLR,,0.00,WeatherDisplay:10.37,2013-06-06 07:45:00,
2013-06-06 02:50:00,61.7,41.8,30.06,ENE,63,0.0,0.0,48,0.00,CLR,,0.00,WeatherDisplay:10.37,2013-06-06 07:50:00,
2013-06-06 02:55:00,61.7,41.8,30.05,NE,52,0.0,0.0,48,0.00,CLR,,0.00,WeatherDisplay:10.37,2013-06-06 07:55:00,
2013-06-06 03:00:00,61.6,41.7,30.05,NE,45,0.0,0.0,48,0.00,CLR,,0.00,WeatherDisplay:10.37,2013-06-06 08:00:00,
2013-06-06 03:05:00,61.5,41.6,30.05,NE,45,0.0,0.0,48,0.00,CLR,,0.00,WeatherDisplay:10.37,2013-06-06 08:05:00,
2013-06-06 03:10:00,61.5,42.2,30.05,NE,47,0.0,0.0,49,0.00,CLR,,0.00,WeatherDisplay:10.37,2013-06-06 08:10:00,
2013-06-06 03:15:00,61.4,42.1,30.05,NE,48,0.0,0.0,49,0.00,CLR,,0.00,WeatherDisplay:10.37,2013-06-06 08:15:00,
2013-06-06 03:25:00,61.2,41.8,30.04,NE,52,0.0,0.0,49,0.00,CLR,,0.00,WeatherDisplay:10.37,2013-06-06 08:25:00,
2013-06-06 03:30:00,61.2,41.8,30.04,NE,50,0.0,0.0,49,0.00,CLR,,0.00,WeatherDisplay:10.37,2013-06-06 08:30:00,
2013-06-06 03:40:00,61.0,41.1,30.04,NE,50,0.0,0.0,48,0.00,CLR,,0.00,WeatherDisplay:10.37,2013-06-06 08:40:00,
2013-06-06 03:45:00,61.0,41.1,30.04,NE,54,0.0,0.0,48,0.00,CLR,,0.00,WeatherDisplay:10.37,2013-06-06 08:45:00,
2013-06-06 03:50:00,61.0,41.1,30.04,ENE,70,0.0,0.0,48,0.00,CLR,,0.00,WeatherDisplay:10.37,2013-06-06 08:50:00,
2013-06-06 03:55:00,60.8,41.0,30.04,ENE,73,0.0,0.0,48,0.00,CLR,,0.00,WeatherDisplay:10.37,2013-06-06 08:55:00,
2013-06-06 04:00:00,60.6,40.8,30.04,NE,56,0.0,0.0,48,0.00,CLR,,0.00,WeatherDisplay:10.37,2013-06-06 09:00:00,
2013-06-06 04:05:00,60.6,40.8,30.04,ENE,59,0.0,0.0,48,0.00,CLR,,0.00,WeatherDisplay:10.37,2013-06-06 09:05:00,
2013-06-06 04:10:00,60.4,41.2,30.04,ENE,68,0.0,0.0,49,0.00,CLR,,0.00,WeatherDisplay:10.37,2013-06-06 09:10:00,
2013-06-06 04:20:00,60.3,41.0,30.04,ENE,65,0.0,0.0,49,0.00,CLR,,0.00,WeatherDisplay:10.37,2013-06-06 09:20:00,
2013-06-06 04:30:00,60.1,40.9,30.04,NE,54,0.0,0.0,49,0.00,CLR,,0.00,WeatherDisplay:10.37,2013-06-06 09:30:00,
2013-06-06 04:40:00,59.9,41.2,30.04,ENE,78,0.0,0.0,50,0.00,CLR,,0.00,WeatherDisplay:10.37,2013-06-06 09:40:00,
2013-06-06 04:45:00,59.9,41.7,30.04,ENE,64,0.0,0.0,51,0.00,CLR,,0.00,WeatherDisplay:10.37,2013-06-06 09:45:00,
2013-06-06 04:50:00,59.9,41.7,30.04,ENE,60,0.0,0.0,51,0.00,CLR,,0.00,WeatherDisplay:10.37,2013-06-06 09:50:00,
2013-06-06 04:55:00,59.7,42.1,30.04,ENE,69,0.0,0.0,52,0.00,CLR,,0.00,WeatherDisplay:10.37,2013-06-06 09:55:00,
2013-06-06 05:00:00,59.9,43.2,30.04,ENE,67,0.0,0.0,54,0.00,CLR,,0.00,WeatherDisplay:10.37,2013-06-06 10:00:00,
2013-06-06 05:05:00,59.9,43.2,30.04,ENE,63,0.0,0.0,54,0.00,CLR,,0.00,WeatherDisplay:10.37,2013-06-06 10:05:00,
2013-06-06 05:10:00,59.7,43.5,30.04,ENE,62,0.0,2.0,55,0.00,CLR,,0.00,WeatherDisplay:10.37,2013-06-06 10:10:00,
2013-06-06 05:20:00,59.9,43.2,30.03,ENE,68,0.0,0.0,54,0.00,CLR,,0.00,WeatherDisplay:10.37,2013-06-06 10:20:00,
2013-06-06 05:25:00,59.9,43.2,30.04,ENE,62,0.0,0.0,54,0.00,CLR,,0.00,WeatherDisplay:10.37,2013-06-06 10:25:00,
2013-06-06 05:30:00,59.7,43.0,30.04,ENE,63,0.0,0.0,54,0.00,CLR,,0.00,WeatherDisplay:10.37,2013-06-06 10:30:00,
2013-06-06 05:40:00,59.9,43.7,30.04,ENE,77,0.0,0.0,55,0.00,CLR,,0.00,WeatherDisplay:10.37,2013-06-06 10:40:00,
2013-06-06 05:45:00,59.8,43.5,30.04,ENE,63,0.0,0.0,55,0.00,CLR,,0.00,WeatherDisplay:10.37,2013-06-06 10:45:00,
2013-06-06 05:50:00,59.7,43.0,30.04,NE,54,0.0,0.0,54,0.00,CLR,,0.00,WeatherDisplay:10.37,2013-06-06 10:50:00,
2013-06-06 05:55:00,59.8,43.6,30.04,NE,45,0.0,0.0,55,0.00,CLR,,0.00,WeatherDisplay:10.37,2013-06-06 10:55:00,
2013-06-06 06:00:00,59.7,43.5,30.04,NE,54,0.0,0.0,55,0.00,CLR,,0.00,WeatherDisplay:10.37,2013-06-06 11:00:00,
2013-06-06 06:05:00,59.9,43.2,30.04,NE,46,0.0,0.0,54,0.00,CLR,,0.00,WeatherDisplay:10.37,2013-06-06 11:05:00,
2013-06-06 06:10:00,59.9,43.2,30.04,NE,45,0.0,0.0,54,0.00,CLR,,0.00,WeatherDisplay:10.37,2013-06-06 11:10:00,
2013-06-06 06:15:00,60.1,43.4,30.04,ENE,57,0.0,0.0,54,0.00,CLR,,0.00,WeatherDisplay:10.37,2013-06-06 11:15:00,
2013-06-06 06:20:00,60.3,43.5,30.04,ENE,66,0.0,0.0,54,0.00,CLR,,0.00,WeatherDisplay:10.37,2013-06-06 11:20:00,
2013-06-06 06:30:00,60.3,44.0,30.04,East,79,0.0,0.0,55,0.00,CLR,,0.00,WeatherDisplay:10.37,2013-06-06 11:30:00,
2013-06-06 06:35:00,60.3,43.5,30.04,ENE,64,0.0,0.0,54,0.00,CLR,,0.00,WeatherDisplay:10.37,2013-06-06 11:35:00,
2013-06-06 06:40:00,60.4,43.7,30.04,ENE,64,0.0,0.0,54,0.00,CLR,,0.00,WeatherDisplay:10.37,2013-06-06 11:40:00,
2013-06-06 06:45:00,60.4,44.2,30.04,ENE,59,0.0,0.0,55,0.00,CLR,,0.00,WeatherDisplay:10.37,2013-06-06 11:45:00,
2013-06-06 06:50:00,60.4,44.2,30.05,NE,46,0.0,0.0,55,0.00,CLR,,0.00,WeatherDisplay:10.37,2013-06-06 11:50:00,
2013-06-06 06:55:00,60.4,44.2,30.04,NE,45,0.0,0.0,55,0.00,CLR,,0.00,WeatherDisplay:10.37,2013-06-06 11:55:00,
2013-06-06 07:00:00,60.6,44.4,30.04,NE,53,0.0,0.0,55,0.00,CLR,,0.00,WeatherDisplay:10.37,2013-06-06 12:00:00,
2013-06-06 07:05:00,60.6,44.4,30.04,NE,53,0.0,0.0,55,0.00,CLR,,0.00,WeatherDisplay:10.37,2013-06-06 12:05:00,
2013-06-06 07:10:00,60.8,44.5,30.04,NE,45,0.0,0.0,55,0.00,CLR,,0.00,WeatherDisplay:10.37,2013-06-06 12:10:00,
2013-06-06 07:15:00,61.0,45.2,30.04,NE,45,0.0,0.0,56,0.00,CLR,,0.00,WeatherDisplay:10.37,2013-06-06 12:15:00,
2013-06-06 07:20:00,61.0,45.2,30.04,NE,45,0.0,0.0,56,0.00,CLR,,0.00,WeatherDisplay:10.37,2013-06-06 12:20:00,
2013-06-06 07:30:00,61.3,45.5,30.04,NE,54,0.0,0.0,56,0.00,CLR,,0.00,WeatherDisplay:10.37,2013-06-06 12:30:00,
2013-06-06 07:35:00,61.5,46.1,30.04,NE,50,0.0,0.0,57,0.00,CLR,,0.00,WeatherDisplay:10.37,2013-06-06 12:35:00,
2013-06-06 07:40:00,61.7,45.8,30.04,NE,45,0.0,0.0,56,0.00,CLR,,0.00,WeatherDisplay:10.37,2013-06-06 12:40:00,
2013-06-06 07:45:00,62.1,46.2,30.04,NE,45,0.0,0.0,56,0.00,CLR,,0.00,WeatherDisplay:10.37,2013-06-06 12:45:00,
2013-06-06 07:50:00,62.1,46.2,30.04,NE,47,0.0,0.0,56,0.00,CLR,,0.00,WeatherDisplay:10.37,2013-06-06 12:50:00,
2013-06-06 07:55:00,62.4,46.5,30.04,NE,56,0.0,0.0,56,0.00,CLR,,0.00,WeatherDisplay:10.37,2013-06-06 12:55:00,
2013-06-06 08:00:00,62.8,46.8,30.05,NE,52,0.0,0.0,56,0.00,CLR,,0.00,WeatherDisplay:10.37,2013-06-06 13:00:00,
2013-06-06 08:10:00,63.5,47.5,30.04,ENE,63,0.0,0.0,56,0.00,CLR,,0.00,WeatherDisplay:10.37,2013-06-06 13:10:00,
2013-06-06 08:20:00,64.1,47.6,30.04,NE,52,0.0,0.0,55,0.00,CLR,,0.00,WeatherDisplay:10.37,2013-06-06 13:20:00,
2013-06-06 08:25:00,64.4,47.4,30.05,ENE,59,0.0,0.0,54,0.00,CLR,,0.00,WeatherDisplay:10.37,2013-06-06 13:25:00,
2013-06-06 08:30:00,64.6,47.6,30.05,ENE,61,0.0,0.0,54,0.00,CLR,,0.00,WeatherDisplay:10.37,2013-06-06 13:30:00,
2013-06-06 08:35:00,64.6,47.6,30.04,NE,56,0.0,0.0,54,0.00,CLR,,0.00,WeatherDisplay:10.37,2013-06-06 13:35:00,
2013-06-06 08:40:00,64.8,47.7,30.04,NE,48,0.0,0.0,54,0.00,CLR,,0.00,WeatherDisplay:10.37,2013-06-06 13:40:00,
2013-06-06 08:50:00,65.3,48.2,30.04,NE,53,0.0,0.0,54,0.00,CLR,,0.00,WeatherDisplay:10.37,2013-06-06 13:50:00,
2013-06-06 08:55:00,65.8,48.2,30.05,ENE,65,0.0,0.0,53,0.00,CLR,,0.00,WeatherDisplay:10.37,2013-06-06 13:55:00,
2013-06-06 09:00:00,66.6,48.9,30.05,NE,54,0.0,0.0,53,0.00,CLR,,0.00,WeatherDisplay:10.37,2013-06-06 14:00:00,
2013-06-06 09:05:00,67.0,49.3,30.05,NE,45,0.0,0.0,53,0.00,CLR,,0.00,WeatherDisplay:10.37,2013-06-06 14:05:00,
2013-06-06 09:10:00,67.1,48.4,30.05,NE,45,0.0,0.0,51,0.00,CLR,,0.00,WeatherDisplay:10.37,2013-06-06 14:10:00,
2013-06-06 09:15:00,67.8,49.0,30.05,NE,45,0.0,0.0,51,0.00,CLR,,0.00,WeatherDisplay:10.37,2013-06-06 14:15:00,
2013-06-06 09:20:00,68.6,49.8,30.05,NE,45,0.0,0.0,51,0.00,CLR,,0.00,WeatherDisplay:10.37,2013-06-06 14:20:00,
2013-06-06 09:25:00,69.1,49.6,30.05,NE,45,0.0,0.0,50,0.00,CLR,,0.00,WeatherDisplay:10.37,2013-06-06 14:25:00,
2013-06-06 09:30:00,69.8,49.8,30.05,NE,45,0.0,0.0,49,0.00,CLR,,0.00,WeatherDisplay:10.37,2013-06-06 14:30:00,
2013-06-06 09:40:00,71.4,50.1,30.04,NE,40,0.0,0.0,47,0.00,CLR,,0.00,WeatherDisplay:10.37,2013-06-06 14:40:00,
2013-06-06 09:45:00,71.2,48.8,30.04,NE,40,0.0,0.0,45,0.00,CLR,,0.00,WeatherDisplay:10.37,2013-06-06 14:45:00,
2013-06-06 09:50:00,71.1,48.7,30.04,NE,40,0.0,0.0,45,0.00,CLR,,0.00,WeatherDisplay:10.37,2013-06-06 14:50:00,
2013-06-06 10:00:00,72.5,50.5,30.04,NE,45,0.0,0.0,46,0.00,CLR,,0.00,WeatherDisplay:10.37,2013-06-06 15:00:00,
2013-06-06 10:05:00,72.9,50.9,30.04,NE,35,0.0,0.0,46,0.00,CLR,,0.00,WeatherDisplay:10.37,2013-06-06 15:05:00,
2013-06-06 10:10:00,73.0,51.0,30.04,North,10,0.0,0.0,46,0.00,CLR,,0.00,WeatherDisplay:10.37,2013-06-06 15:10:00,
2013-06-06 10:15:00,72.9,49.7,30.04,North,11,0.0,0.0,44,0.00,CLR,,0.00,WeatherDisplay:10.37,2013-06-06 15:15:00,
2013-06-06 10:20:00,73.2,50.6,30.04,NNE,31,0.0,0.0,45,0.00,CLR,,0.00,WeatherDisplay:10.37,2013-06-06 15:20:00,
2013-06-06 10:25:00,73.6,50.9,30.04,NE,43,0.0,0.0,45,0.00,CLR,,0.00,WeatherDisplay:10.37,2013-06-06 15:25:00,
2013-06-06 10:30:00,74.3,51.6,30.04,NE,45,0.0,0.0,45,0.00,CLR,,0.00,WeatherDisplay:10.37,2013-06-06 15:30:00,
2013-06-06 10:35:00,75.0,50.4,30.04,NE,41,0.0,0.0,42,0.00,CLR,,0.00,WeatherDisplay:10.37,2013-06-06 15:35:00,
2013-06-06 10:40:00,75.0,49.7,30.04,NE,35,0.0,0.0,41,0.00,CLR,,0.00,WeatherDisplay:10.37,2013-06-06 15:40:00,
2013-06-06 10:45:00,74.8,49.5,30.04,NNE,19,0.0,0.0,41,0.00,CLR,,0.00,WeatherDisplay:10.37,2013-06-06 15:45:00,
2013-06-06 10:50:00,74.5,49.9,30.05,North,3,0.0,0.0,42,0.00,CLR,,0.00,WeatherDisplay:10.37,2013-06-06 15:50:00,
2013-06-06 10:55:00,74.7,50.0,30.05,NNW,338,0.0,0.0,42,0.00,CLR,,0.00,WeatherDisplay:10.37,2013-06-06 15:55:00,
2013-06-06 11:00:00,74.7,50.0,30.05,NW,323,0.0,0.0,42,0.00,CLR,,0.00,WeatherDisplay:10.37,2013-06-06 16:00:00,
2013-06-06 11:05:00,74.5,49.9,30.05,NW,323,0.0,0.0,42,0.00,CLR,,0.00,WeatherDisplay:10.37,2013-06-06 16:05:00,
2013-06-06 11:10:00,73.9,49.4,30.05,NW,305,0.0,0.0,42,0.00,CLR,,0.00,WeatherDisplay:10.37,2013-06-06 16:10:00,
2013-06-06 11:15:00,73.3,48.8,30.05,NW,309,0.0,0.0,42,0.00,CLR,,0.00,WeatherDisplay:10.37,2013-06-06 16:15:00,
2013-06-06 11:20:00,72.9,49.1,30.05,NNW,334,0.0,0.0,43,0.00,CLR,,0.00,WeatherDisplay:10.37,2013-06-06 16:20:00,
2013-06-06 11:25:00,73.0,49.2,30.05,NNW,334,0.0,0.0,43,0.00,CLR,,0.00,WeatherDisplay:10.37,2013-06-06 16:25:00,
2013-06-06 11:30:00,72.8,49.0,30.06,NW,312,0.0,0.0,43,0.00,CLR,,0.00,WeatherDisplay:10.37,2013-06-06 16:30:00,
2013-06-06 11:35:00,72.5,51.1,30.06,WNW,297,1.0,2.0,47,0.00,CLR,,0.00,WeatherDisplay:10.37,2013-06-06 16:35:00,
2013-06-06 11:40:00,71.8,51.0,30.06,WNW,283,0.0,0.0,48,0.00,CLR,,0.00,WeatherDisplay:10.37,2013-06-06 16:40:00,
2013-06-06 11:45:00,70.0,50.5,30.06,WNW,297,0.0,2.0,50,0.00,CLR,,0.00,WeatherDisplay:10.37,2013-06-06 16:45:00,
2013-06-06 11:50:00,69.1,50.7,30.06,NNW,334,1.0,2.0,52,0.00,CLR,,0.00,WeatherDisplay:10.37,2013-06-06 16:50:00,
2013-06-06 11:55:00,68.4,51.1,30.06,NW,323,0.0,2.0,54,0.00,CLR,,0.00,WeatherDisplay:10.37,2013-06-06 16:55:00,
2013-06-06 12:00:00,68.1,50.8,30.06,WNW,301,0.0,0.0,54,0.00,CLR,,0.00,WeatherDisplay:10.37,2013-06-06 17:00:00,
2013-06-06 12:05:00,66.0,49.9,30.06,NNW,333,2.0,6.0,56,0.00,CLR,,0.00,WeatherDisplay:10.37,2013-06-06 17:05:00,
2013-06-06 12:10:00,64.6,49.0,30.07,NNW,344,3.0,6.0,57,0.00,CLR,,0.00,WeatherDisplay:10.37,2013-06-06 17:10:00,
2013-06-06 12:15:00,62.7,48.6,30.07,NW,324,0.0,4.0,60,0.00,CLR,,0.00,WeatherDisplay:10.37,2013-06-06 17:15:00,
2013-06-06 12:20:00,61.3,49.1,30.06,NW,321,0.0,0.0,64,0.00,CLR,,0.00,WeatherDisplay:10.37,2013-06-06 17:20:00,
2013-06-06 12:30:00,61.0,51.1,30.06,NNW,343,0.0,0.0,70,0.00,CLR,,0.00,WeatherDisplay:10.37,2013-06-06 17:30:00,
2013-06-06 12:35:00,60.8,51.3,30.05,NW,320,0.0,0.0,71,0.00,CLR,,0.00,WeatherDisplay:10.37,2013-06-06 17:35:00,
2013-06-06 12:40:00,61.0,51.9,30.06,NNW,345,0.0,0.0,72,0.00,CLR,,0.00,WeatherDisplay:10.37,2013-06-06 17:40:00,
2013-06-06 12:45:00,61.2,52.1,30.05,North,2,0.0,0.0,72,0.00,CLR,,0.00,WeatherDisplay:10.37,2013-06-06 17:45:00,
2013-06-06 12:50:00,61.5,52.4,30.05,North,349,0.0,0.0,72,0.00,CLR,,0.00,WeatherDisplay:10.37,2013-06-06 17:50:00,
2013-06-06 12:55:00,61.7,52.6,30.05,NNE,15,0.0,4.0,72,0.00,CLR,,0.00,WeatherDisplay:10.37,2013-06-06 17:55:00,
2013-06-06 13:00:00,61.7,52.2,30.04,NNE,28,0.0,0.0,71,0.00,CLR,,0.00,WeatherDisplay:10.37,2013-06-06 18:00:00,
2013-06-06 13:05:00,61.7,52.2,30.04,NNE,25,0.0,0.0,71,0.00,CLR,,0.00,WeatherDisplay:10.37,2013-06-06 18:05:00,
2013-06-06 13:10:00,61.3,51.8,30.04,NNE,22,0.0,0.0,71,0.00,CLR,,0.00,WeatherDisplay:10.37,2013-06-06 18:10:00,
2013-06-06 13:15:00,61.2,52.4,30.03,NNE,32,0.0,0.0,73,0.00,CLR,,0.00,WeatherDisplay:10.37,2013-06-06 18:15:00,
2013-06-06 13:20:00,61.5,53.1,30.03,NNE,31,0.0,0.0,74,0.00,CLR,,0.00,WeatherDisplay:10.37,2013-06-06 18:20:00,
2013-06-06 13:25:00,61.8,53.4,30.03,NE,39,0.0,0.0,74,0.00,CLR,,0.00,WeatherDisplay:10.37,2013-06-06 18:25:00,
2013-06-06 13:30:00,62.2,53.8,30.03,NE,37,0.0,0.0,74,0.00,CLR,,0.00,WeatherDisplay:10.37,2013-06-06 18:30:00,
2013-06-06 13:35:00,62.8,54.4,30.03,NNE,25,0.0,0.0,74,0.00,CLR,,0.00,WeatherDisplay:10.37,2013-06-06 18:35:00,
2013-06-06 13:40:00,63.3,54.5,30.02,ENE,73,0.0,0.0,73,0.00,CLR,,0.00,WeatherDisplay:10.37,2013-06-06 18:40:00,
2013-06-06 13:50:00,65.5,55.8,30.02,North,9,0.0,0.0,71,0.02,RA,,0.02,WeatherDisplay:10.37,2013-06-06 18:50:00,
2013-06-06 13:55:00,66.9,56.4,30.02,WSW,252,0.0,0.0,69,0.00,RA,,0.02,WeatherDisplay:10.37,2013-06-06 18:55:00,
2013-06-06 14:00:00,70.0,58.1,30.03,WSW,245,0.0,0.0,66,0.00,,,0.02,WeatherDisplay:10.37,2013-06-06 19:00:00,
2013-06-06 14:10:00,73.4,56.3,30.02,NW,317,0.0,0.0,55,0.00,CLR,,0.02,WeatherDisplay:10.37,2013-06-06 19:10:00,
2013-06-06 14:20:00,73.9,53.0,30.03,NW,315,0.0,0.0,48,0.00,CLR,,0.02,WeatherDisplay:10.37,2013-06-06 19:20:00,
2013-06-06 14:25:00,72.7,52.5,30.03,NNW,347,0.0,0.0,49,0.00,CLR,,0.02,WeatherDisplay:10.37,2013-06-06 19:25:00,
2013-06-06 14:30:00,75.0,55.7,30.02,NW,306,0.0,0.0,51,0.00,CLR,,0.02,WeatherDisplay:10.37,2013-06-06 19:30:00,
2013-06-06 14:35:00,77.0,55.2,30.02,West,265,1.0,1.0,47,0.00,CLR,,0.02,WeatherDisplay:10.37,2013-06-06 19:35:00,
2013-06-06 14:40:00,77.4,53.1,30.02,West,274,0.0,2.0,43,0.00,CLR,,0.02,WeatherDisplay:10.37,2013-06-06 19:40:00,
2013-06-06 14:45:00,77.7,52.8,30.02,NNW,328,0.0,2.0,42,0.00,CLR,,0.02,WeatherDisplay:10.37,2013-06-06 19:45:00,
2013-06-06 14:50:00,78.4,52.8,30.03,North,354,0.0,0.0,41,0.00,CLR,,0.02,WeatherDisplay:10.37,2013-06-06 19:50:00,
2013-06-06 14:55:00,79.2,52.1,30.03,NNW,335,0.0,0.0,39,0.00,CLR,,0.02,WeatherDisplay:10.37,2013-06-06 19:55:00,
2013-06-06 15:00:00,79.0,52.6,30.03,West,269,0.0,0.0,40,0.00,CLR,,0.02,WeatherDisplay:10.37,2013-06-06 20:00:00,
2013-06-06 15:05:00,79.7,51.1,30.03,WSW,255,0.0,4.0,37,0.00,CLR,,0.02,WeatherDisplay:10.37,2013-06-06 20:05:00,
2013-06-06 15:10:00,78.9,49.7,30.03,West,270,0.0,4.0,36,0.00,CLR,,0.02,WeatherDisplay:10.37,2013-06-06 20:10:00,
2013-06-06 15:15:00,78.6,49.4,30.03,WNW,302,0.0,0.0,36,0.00,CLR,,0.02,WeatherDisplay:10.37,2013-06-06 20:15:00,
2013-06-06 15:20:00,76.6,48.3,30.03,NNW,348,0.0,0.0,37,0.00,CLR,,0.02,WeatherDisplay:10.37,2013-06-06 20:20:00,
2013-06-06 15:30:00,74.1,48.9,30.03,NNW,343,0.0,0.0,41,0.00,CLR,,0.02,WeatherDisplay:10.37,2013-06-06 20:30:00,
2013-06-06 15:35:00,73.1,49.2,30.04,NNW,346,0.0,1.0,43,0.00,CLR,,0.02,WeatherDisplay:10.37,2013-06-06 20:35:00,
2013-06-06 15:40:00,72.0,48.3,30.03,NW,306,0.0,0.0,43,0.00,CLR,,0.02,WeatherDisplay:10.37,2013-06-06 20:40:00,
2013-06-06 15:45:00,70.9,47.3,30.04,NW,320,0.0,0.0,43,0.00,CLR,,0.02,WeatherDisplay:10.37,2013-06-06 20:45:00,
2013-06-06 15:50:00,70.5,48.7,30.03,NW,322,0.0,0.0,46,0.00,CLR,,0.02,WeatherDisplay:10.37,2013-06-06 20:50:00,
2013-06-06 15:55:00,70.5,48.7,30.04,NNW,331,0.0,0.0,46,0.00,CLR,,0.02,WeatherDisplay:10.37,2013-06-06 20:55:00,
2013-06-06 16:00:00,70.5,49.9,30.04,NNW,334,0.0,0.0,48,0.00,CLR,,0.02,WeatherDisplay:10.37,2013-06-06 21:00:00,
2013-06-06 16:05:00,70.5,49.9,30.04,NW,324,0.0,0.0,48,0.00,CLR,,0.02,WeatherDisplay:10.37,2013-06-06 21:05:00,
2013-06-06 16:10:00,70.6,50.0,30.04,NW,326,0.0,0.0,48,0.00,CLR,,0.02,WeatherDisplay:10.37,2013-06-06 21:10:00,
2013-06-06 16:15:00,70.5,49.3,30.04,NW,320,0.0,2.0,47,0.00,CLR,,0.02,WeatherDisplay:10.37,2013-06-06 21:15:00,
2013-06-06 16:20:00,70.2,50.1,30.04,NW,305,0.0,0.0,49,0.00,CLR,,0.02,WeatherDisplay:10.37,2013-06-06 21:20:00,
2013-06-06 16:30:00,70.3,50.3,30.04,NW,322,0.0,0.0,49,0.00,CLR,,0.02,WeatherDisplay:10.37,2013-06-06 21:30:00,
2013-06-06 16:35:00,70.0,49.9,30.04,NW,318,0.0,0.0,49,0.00,CLR,,0.02,WeatherDisplay:10.37,2013-06-06 21:35:00,
2013-06-06 16:40:00,68.9,49.5,30.04,NW,321,2.0,3.0,50,0.00,CLR,,0.02,WeatherDisplay:10.37,2013-06-06 21:40:00,
2013-06-06 16:45:00,68.5,50.2,30.04,NNW,328,0.0,0.0,52,0.00,CLR,,0.02,WeatherDisplay:10.37,2013-06-06 21:45:00,
2013-06-06 16:50:00,68.6,50.2,30.04,North,355,0.0,0.0,52,0.00,CLR,,0.02,WeatherDisplay:10.37,2013-06-06 21:50:00,
2013-06-06 17:00:00,68.9,49.5,30.04,NE,34,0.0,0.0,50,0.00,CLR,,0.02,WeatherDisplay:10.37,2013-06-06 22:00:00,
2013-06-06 17:05:00,68.9,50.0,30.04,North,355,0.0,0.0,51,0.00,CLR,,0.02,WeatherDisplay:10.37,2013-06-06 22:05:00,
2013-06-06 17:10:00,69.3,50.4,30.04,WNW,301,0.0,0.0,51,0.00,CLR,,0.02,WeatherDisplay:10.37,2013-06-06 22:10:00,
2013-06-06 17:15:00,68.7,49.3,30.04,NW,324,5.0,8.0,50,0.00,CLR,,0.02,WeatherDisplay:10.37,2013-06-06 22:15:00,
2013-06-06 17:20:00,67.3,48.6,30.04,NW,321,0.0,5.0,51,0.00,CLR,,0.02,WeatherDisplay:10.37,2013-06-06 22:20:00,
2013-06-06 17:25:00,66.9,49.2,30.04,NW,315,0.0,0.0,53,0.00,CLR,,0.02,WeatherDisplay:10.37,2013-06-06 22:25:00,
2013-06-06 17:30:00,66.2,49.1,30.04,NNW,327,0.0,0.0,54,0.00,CLR,,0.02,WeatherDisplay:10.37,2013-06-06 22:30:00,
2013-06-06 17:35:00,65.8,49.2,30.04,NNW,333,2.0,2.0,55,0.00,CLR,,0.02,WeatherDisplay:10.37,2013-06-06 22:35:00,
2013-06-06 17:40:00,65.8,49.7,30.04,WNW,303,0.0,0.0,56,0.00,CLR,,0.02,WeatherDisplay:10.37,2013-06-06 22:40:00,
2013-06-06 17:45:00,65.5,49.3,30.04,WNW,292,0.0,0.0,56,0.00,CLR,,0.02,WeatherDisplay:10.37,2013-06-06 22:45:00,
2013-06-06 17:50:00,64.8,49.2,30.04,North,350,0.0,0.0,57,0.00,CLR,,0.02,WeatherDisplay:10.37,2013-06-06 22:50:00,
2013-06-06 17:55:00,64.8,49.6,30.04,NNW,345,0.0,0.0,58,0.00,CLR,,0.02,WeatherDisplay:10.37,2013-06-06 22:55:00,
2013-06-06 18:00:00,65.5,49.8,30.04,NW,323,0.0,0.0,57,0.00,CLR,,0.02,WeatherDisplay:10.37,2013-06-06 23:00:00,
2013-06-06 18:05:00,65.4,49.8,30.04,NNW,340,0.0,0.0,57,0.00,CLR,,0.02,WeatherDisplay:10.37,2013-06-06 23:05:00,
2013-06-06 18:10:00,65.3,49.7,30.04,NNW,329,0.0,0.0,57,0.00,CLR,,0.02,WeatherDisplay:10.37,2013-06-06 23:10:00,
2013-06-06 18:15:00,64.9,49.8,30.04,West,280,0.0,0.0,58,0.00,CLR,,0.02,WeatherDisplay:10.37,2013-06-06 23:15:00,
2013-06-06 18:20:00,64.6,49.4,30.04,West,278,0.0,0.0,58,0.00,CLR,,0.02,WeatherDisplay:10.37,2013-06-06 23:20:00,
2013-06-06 18:25:00,63.9,49.2,30.04,NNW,341,3.0,4.0,59,0.00,CLR,,0.02,WeatherDisplay:10.37,2013-06-06 23:25:00,
2013-06-06 18:30:00,63.5,48.9,30.04,North,11,0.0,4.0,59,0.00,CLR,,0.02,WeatherDisplay:10.37,2013-06-06 23:30:00,
2013-06-06 18:35:00,63.3,49.2,30.04,NNE,24,0.0,0.0,60,0.00,CLR,,0.02,WeatherDisplay:10.37,2013-06-06 23:35:00,
2013-06-06 18:40:00,63.0,48.9,30.04,NE,39,0.0,0.0,60,0.00,CLR,,0.02,WeatherDisplay:10.37,2013-06-06 23:40:00,
2013-06-06 18:50:00,62.2,48.6,30.04,WNW,282,0.0,5.0,61,0.00,CLR,,0.02,WeatherDisplay:10.37,2013-06-06 23:50:00,
2013-06-06 19:00:00,61.9,48.7,30.05,North,6,0.0,2.0,62,0.00,CLR,,0.02,WeatherDisplay:10.37,2013-06-07 00:00:00,
2013-06-06 19:05:00,61.5,49.2,30.05,North,3,0.0,0.0,64,0.00,CLR,,0.02,WeatherDisplay:10.37,2013-06-07 00:05:00,
2013-06-06 19:10:00,61.3,49.1,30.05,NNW,346,0.0,0.0,64,0.00,CLR,,0.02,WeatherDisplay:10.37,2013-06-07 00:10:00,
2013-06-06 19:15:00,61.1,48.8,30.05,NNE,17,0.0,1.0,64,0.00,CLR,,0.02,WeatherDisplay:10.37,2013-06-07 00:15:00,
2013-06-06 19:20:00,60.4,48.2,30.05,NNE,31,1.0,2.0,64,0.00,CLR,,0.02,WeatherDisplay:10.37,2013-06-07 00:20:00,
2013-06-06 19:25:00,59.9,47.7,30.05,North,356,7.0,8.0,64,0.00,CLR,,0.02,WeatherDisplay:10.37,2013-06-07 00:25:00,
2013-06-06 19:35:00,58.8,47.5,30.05,NNW,338,0.0,0.0,66,0.00,CLR,,0.02,WeatherDisplay:10.37,2013-06-07 00:35:00,
2013-06-06 19:40:00,58.5,47.5,30.05,NNW,348,0.0,0.0,67,0.00,CLR,,0.02,WeatherDisplay:10.37,2013-06-07 00:40:00,
2013-06-06 19:45:00,57.8,46.9,30.05,NNW,331,0.0,0.0,67,0.00,CLR,,0.02,WeatherDisplay:10.37,2013-06-07 00:45:00,
2013-06-06 19:50:00,57.4,47.3,30.06,NW,312,0.0,0.0,69,0.00,CLR,,0.02,WeatherDisplay:10.37,2013-06-07 00:50:00,
2013-06-06 19:55:00,56.8,47.2,30.05,NW,322,0.0,0.0,70,0.00,CLR,,0.02,WeatherDisplay:10.37,2013-06-07 00:55:00,
2013-06-06 20:00:00,56.4,47.4,30.06,NW,317,0.0,4.0,72,0.00,CLR,,0.02,WeatherDisplay:10.37,2013-06-07 01:00:00,
2013-06-06 20:05:00,56.1,47.6,30.05,NW,323,0.0,0.0,73,0.00,CLR,,0.02,WeatherDisplay:10.37,2013-06-07 01:05:00,
2013-06-06 20:10:00,55.8,47.6,30.06,NW,319,0.0,0.0,74,0.00,CLR,,0.02,WeatherDisplay:10.37,2013-06-07 01:10:00,
2013-06-06 20:20:00,55.0,47.3,30.05,NW,320,0.0,0.0,75,0.00,CLR,,0.02,WeatherDisplay:10.37,2013-06-07 01:20:00,
2013-06-06 20:25:00,54.9,47.4,30.06,NNW,331,0.0,2.0,76,0.00,CLR,,0.02,WeatherDisplay:10.37,2013-06-07 01:25:00,
2013-06-06 20:30:00,54.5,47.1,30.05,North,349,0.0,0.0,76,0.00,CLR,,0.02,WeatherDisplay:10.37,2013-06-07 01:30:00,
2013-06-06 20:35:00,54.3,46.9,30.05,North,352,0.0,0.0,76,0.00,CLR,,0.02,WeatherDisplay:10.37,2013-06-07 01:35:00,
2013-06-06 20:40:00,54.1,47.1,30.05,NNW,335,0.0,0.0,77,0.00,CLR,,0.02,WeatherDisplay:10.37,2013-06-07 01:40:00,
2013-06-06 20:45:00,54.0,47.0,30.05,NNW,341,0.0,0.0,77,0.00,CLR,,0.02,WeatherDisplay:10.37,2013-06-07 01:45:00,
2013-06-06 20:50:00,54.0,46.9,30.05,North,6,5.0,5.0,77,0.00,CLR,,0.02,WeatherDisplay:10.37,2013-06-07 01:50:00,
2013-06-06 21:00:00,53.6,46.9,30.06,NNW,348,0.0,0.0,78,0.00,CLR,,0.02,WeatherDisplay:10.37,2013-06-07 02:00:00,
2013-06-06 21:05:00,53.8,47.1,30.06,NNW,344,1.0,6.0,78,0.00,CLR,,0.02,WeatherDisplay:10.37,2013-06-07 02:05:00,
2013-06-06 21:10:00,53.4,46.7,30.06,NNW,339,0.0,0.0,78,0.00,CLR,,0.02,WeatherDisplay:10.37,2013-06-07 02:10:00,
2013-06-06 21:15:00,53.3,46.6,30.06,North,353,0.0,0.0,78,0.00,CLR,,0.02,WeatherDisplay:10.37,2013-06-07 02:15:00,
2013-06-06 21:20:00,53.2,46.9,30.07,North,349,0.0,0.0,79,0.00,CLR,,0.02,WeatherDisplay:10.37,2013-06-07 02:20:00,
2013-06-06 21:25:00,53.2,46.9,30.07,NNW,343,0.0,0.0,79,0.00,CLR,,0.02,WeatherDisplay:10.37,2013-06-07 02:25:00,
2013-06-06 21:35:00,53.1,46.7,30.07,NNW,339,0.0,0.0,79,0.00,CLR,,0.02,WeatherDisplay:10.37,2013-06-07 02:35:00,
2013-06-06 21:40:00,53.1,46.7,30.07,North,355,0.0,0.0,79,0.00,CLR,,0.02,WeatherDisplay:10.37,2013-06-07 02:40:00,
2013-06-06 21:45:00,53.1,47.1,30.07,North,359,0.0,0.0,80,0.00,CLR,,0.02,WeatherDisplay:10.37,2013-06-07 02:45:00,
2013-06-06 21:50:00,53.1,47.1,30.07,NNW,345,1.0,2.0,80,0.00,CLR,,0.02,WeatherDisplay:10.37,2013-06-07 02:50:00,
2013-06-06 21:55:00,53.1,47.1,30.07,NNW,330,0.0,2.0,80,0.00,CLR,,0.02,WeatherDisplay:10.37,2013-06-07 02:55:00,
2013-06-06 22:00:00,53.1,47.1,30.07,NNW,342,0.0,0.0,80,0.00,CLR,,0.02,WeatherDisplay:10.37,2013-06-07 03:00:00,
2013-06-06 22:10:00,53.1,47.1,30.07,NNW,340,0.0,0.0,80,0.00,CLR,,0.02,WeatherDisplay:10.37,2013-06-07 03:10:00,
2013-06-06 22:15:00,52.9,46.9,30.06,NNW,346,0.0,0.0,80,0.00,CLR,,0.02,WeatherDisplay:10.37,2013-06-07 03:15:00,
2013-06-06 22:20:00,52.9,46.9,30.07,NNW,344,0.0,0.0,80,0.00,CLR,,0.02,WeatherDisplay:10.37,2013-06-07 03:20:00,
2013-06-06 22:25:00,52.7,46.7,30.07,NNW,347,1.0,1.0,80,0.00,CLR,,0.02,WeatherDisplay:10.37,2013-06-07 03:25:00,
2013-06-06 22:30:00,52.7,46.7,30.07,NNW,335,0.0,0.0,80,0.00,CLR,,0.02,WeatherDisplay:10.37,2013-06-07 03:30:00,
2013-06-06 22:40:00,52.7,46.7,30.06,North,356,0.0,0.0,80,0.00,CLR,,0.02,WeatherDisplay:10.37,2013-06-07 03:40:00,
2013-06-06 22:45:00,52.9,46.9,30.05,NNE,17,0.0,0.0,80,0.00,CLR,,0.02,WeatherDisplay:10.37,2013-06-07 03:45:00,
2013-06-06 22:50:00,53.1,47.1,30.05,NE,40,0.0,0.0,80,0.00,CLR,,0.02,WeatherDisplay:10.37,2013-06-07 03:50:00,
2013-06-06 22:55:00,53.1,47.1,30.05,NE,36,0.0,0.0,80,0.00,CLR,,0.02,WeatherDisplay:10.37,2013-06-07 03:55:00,
2013-06-06 23:00:00,53.2,47.6,30.05,North,357,0.0,0.0,81,0.00,CLR,,0.02,WeatherDisplay:10.37,2013-06-07 04:00:00,
2013-06-06 23:05:00,53.2,47.6,30.05,NNW,327,0.0,0.0,81,0.00,CLR,,0.02,WeatherDisplay:10.37,2013-06-07 04:05:00,
2013-06-06 23:10:00,53.4,47.7,30.05,NNW,341,0.0,0.0,81,0.00,CLR,,0.02,WeatherDisplay:10.37,2013-06-07 04:10:00,
2013-06-06 23:15:00,53.8,48.1,30.05,North,2,0.0,0.0,81,0.00,CLR,,0.02,WeatherDisplay:10.37,2013-06-07 04:15:00,
2013-06-06 23:20:00,53.8,48.1,30.05,North,355,0.0,0.0,81,0.00,CLR,,0.02,WeatherDisplay:10.37,2013-06-07 04:20:00,
2013-06-06 23:30:00,53.9,48.2,30.05,North,7,0.0,0.0,81,0.00,CLR,,0.02,WeatherDisplay:10.37,2013-06-07 04:30:00,
2013-06-06 23:35:00,54.0,48.3,30.05,North,356,0.0,0.0,81,0.00,CLR,,0.02,WeatherDisplay:10.37,2013-06-07 04:35:00,
2013-06-06 23:40:00,53.9,48.2,30.05,North,351,0.0,0.0,81,0.00,CLR,,0.02,WeatherDisplay:10.37,2013-06-07 04:40:00,
2013-06-06 23:45:00,53.8,48.1,30.05,North,0,0.0,0.0,81,0.00,CLR,,0.02,WeatherDisplay:10.37,2013-06-07 04:45:00,
2013-06-06 23:50:00,53.8,48.1,30.05,North,0,0.0,0.0,81,0.00,CLR,,0.02,WeatherDisplay:10.37,2013-06-07 04:50:00,
2013-06-06 23:55:00,53.8,48.1,30.05,North,0,0.0,0.0,81,0.00,CLR,,0.02,WeatherDisplay:10.37,2013-06-07 04:55:00,